Regional Weather Roundup
Issued by NWS Goodland, KS

Home | Current Version | Previous Version | Graphics & Text | Print | Product List | Glossary On
Versions: 1 2 3 4 5 6 7 8 9 10 11 12 13 14 15 16 17 18 19 20 21 22 23 24 25 26 27 28 29 30 31 32 33 34 35 36 37 38 39 40 41 42 43 44 45 46 47 48 49 50
000
ASUS43 KGLD 041108
RWRGLD

GOODLAND FORECAST AREA HOURLY WEATHER ROUNDUP
NATIONAL WEATHER SERVICE GOODLAND KS
500 AM MDT FRI SEP 04 2015

...OFFICIAL OBSERVATIONS...

CITY           SKY/WX    TMP DP  RH WIND       PRES   REMARKS
GOODLAND KS    PTCLDY    63  54  72 W7        29.86R
HILL CITY KS   CLEAR     75  59  57 S8        29.81R
IMPERIAL NEB   PTCLDY    65  61  87 NW6       29.82F
MCCOOK NEB     PTCLDY    71  57  61 CALM      29.78R
AKRON CO       CLEAR     58  52  80 W14       29.94R
BURLINGTON CO  PTCLDY    61  52  72 W9        29.92R
LIMON CO       PTCLDY    54  51  90 NW5       30.00S
$$

...UNOFFICIAL OBSERVATIONS...

CITY           SKY/WX    TMP DP  RH WIND       PRES   REMARKS
COLBY KS       CLEAR     72  61  68 SW6       29.84R
GOVE KS          N/A     73  32  22 MISG        N/A
LENORA KS        N/A     72  32  23 MISG        N/A
NORTON KS      CLEAR     73  55  53 SE7       29.80S
SHARON SPRINGS   N/A     61  54  78 W6          N/A
KIT CARSON CO    N/A     60  51  73 MISG        N/A
YUMA CO          N/A     57  53  86 CALM        N/A
$$



USA.gov is the U.S. government's official web portal to all federal, state and local government web resources and services.